• In Belarus
  • List of Countries
  • For 7 days
  • Water Temperature
  • Satellite Maps
  • Weather Map
  • Weather Widgets
  • user-avatar
    Login

    Hourly Weather Jewłach

    Today, 18 July, Wednesday

    Time Temperature Precipitation Wind Pressure Humidity
    00:00 +27°C° 0 mm 2 mps 755 mmHg 46%
    01:00 +27°C° 0 mm 2 mps 755 mmHg 45%
    02:00 +26°C° 0 mm 2 mps 755 mmHg 45%
    03:00 +26°C° 0 mm 2 mps 755 mmHg 44%
    04:00 +26°C° 0 mm 2 mps 755 mmHg 43%
    05:00 +27°C° 0 mm 2 mps 755 mmHg 42%
    06:00 +27°C° 0 mm 2 mps 755 mmHg 41%
    07:00 +29°C° 0 mm 2 mps 754 mmHg 37%
    08:00 +31°C° 0 mm 2 mps 754 mmHg 32%
    09:00 +32°C° 0 mm 2 mps 754 mmHg 28%
    10:00 +35°C° 0 mm 2 mps 753 mmHg 26%
    11:00 +36°C° 0 mm 2 mps 753 mmHg 24%
    12:00 +37°C° 0 mm 2 mps 753 mmHg 23%
    13:00 +38°C° 0 mm 2 mps 752 mmHg 22%
    14:00 +39°C° 0 mm 3 mps 752 mmHg 22%
    15:00 +39°C° 0 mm 3 mps 751 mmHg 21%
    16:00 +39°C° 0 mm 3 mps 751 mmHg 22%
    17:00 +40°C° 0 mm 4 mps 751 mmHg 23%
    18:00 +38°C° 0 mm 4 mps 751 mmHg 24%
    19:00 +36°C° 0 mm 4 mps 752 mmHg 29%
    20:00 +34°C° 0 mm 4 mps 752 mmHg 33%
    21:00 +33°C° 0 mm 4 mps 752 mmHg 38%
    22:00 +31°C° 0 mm 3 mps 752 mmHg 42%
    23:00 +30°C° 0 mm 3 mps 753 mmHg 46%

    Tomorrow, 19 July, Thursday

    Time Temperature Precipitation Wind Pressure Humidity
    00:00 +29°C° 0 mm 2 mps 753 mmHg 50%
    01:00 +29°C° 0 mm 2 mps 753 mmHg 52%
    02:00 +28°C° 0 mm 1 mps 753 mmHg 54%
    03:00 +28°C° 0 mm 1 mps 753 mmHg 56%
    04:00 +28°C° 0 mm 1 mps 753 mmHg 55%
    05:00 +29°C° 0 mm 1 mps 753 mmHg 54%
    06:00 +29°C° 0 mm 1 mps 753 mmHg 53%
    07:00 +31°C° 0 mm 1 mps 752 mmHg 50%
    08:00 +32°C° 0 mm 2 mps 752 mmHg 46%
    09:00 +35°C° 0 mm 2 mps 752 mmHg 42%
    10:00 +36°C° 0 mm 2 mps 751 mmHg 38%
    11:00 +37°C° 0 mm 2 mps 751 mmHg 35%
    12:00 +39°C° 0 mm 1 mps 750 mmHg 31%
    13:00 +39°C° 0 mm 2 mps 750 mmHg 30%
    14:00 +40°C° 0 mm 2 mps 750 mmHg 28%
    15:00 +41°C° 0 mm 2 mps 749 mmHg 27%
    16:00 +41°C° 0 mm 2 mps 749 mmHg 26%
    17:00 +41°C° 0 mm 2 mps 749 mmHg 25%
    18:00 +41°C° 0 mm 2 mps 749 mmHg 25%
    19:00 +39°C° 0 mm 2 mps 750 mmHg 26%
    20:00 +37°C° 0 mm 2 mps 750 mmHg 27%
    21:00 +35°C° 0 mm 2 mps 751 mmHg 28%
    22:00 +35°C° 0 mm 2 mps 751 mmHg 29%
    23:00 +34°C° 0 mm 2 mps 751 mmHg 30%

    Day after tomorrow, 20 July, Friday

    Time Temperature Precipitation Wind Pressure Humidity
    00:00 +32°C° 0 mm 2 mps 751 mmHg 31%
    01:00 +31°C° 0 mm 1 mps 751 mmHg 33%
    02:00 +31°C° 0 mm 1 mps 751 mmHg 34%
    03:00 +30°C° 0 mm 1 mps 751 mmHg 36%
    04:00 +31°C° 0 mm 1 mps 751 mmHg 35%
    05:00 +31°C° 0 mm 1 mps 751 mmHg 35%
    06:00 +32°C° 0 mm 1 mps 752 mmHg 34%
    07:00 +33°C° 0 mm 1 mps 751 mmHg 32%
    08:00 +35°C° 0 mm 1 mps 751 mmHg 29%
    09:00 +37°C° 0 mm 2 mps 751 mmHg 26%
    10:00 +39°C° 0 mm 2 mps 751 mmHg 24%
    11:00 +40°C° 0 mm 2 mps 751 mmHg 23%
    12:00 +41°C° 0 mm 2 mps 750 mmHg 21%
    13:00 +42°C° 0 mm 2 mps 750 mmHg 21%
    14:00 +42°C° 0 mm 2 mps 749 mmHg 21%
    15:00 +44°C° 0 mm 3 mps 749 mmHg 21%
    16:00 +44°C° 0 mm 3 mps 749 mmHg 21%
    17:00 +43°C° 0 mm 3 mps 749 mmHg 22%
    18:00 +43°C° 0 mm 3 mps 749 mmHg 23%
    19:00 +41°C° 0 mm 4 mps 750 mmHg 28%
    20:00 +37°C° 0 mm 4 mps 750 mmHg 33%
    21:00 +35°C° 0 mm 5 mps 751 mmHg 38%
    22:00 +34°C° 0 mm 4 mps 751 mmHg 41%
    23:00 +33°C° 0 mm 3 mps 751 mmHg 45%

    21 July, Saturday

    Time Temperature Precipitation Wind Pressure Humidity
    00:00 +32°C° 0 mm 2 mps 751 mmHg 48%
    01:00 +31°C° 0 mm 2 mps 751 mmHg 50%
    02:00 +31°C° 0 mm 1 mps 751 mmHg 51%
    03:00 +30°C° 0 mm 1 mps 751 mmHg 53%
    04:00 +31°C° 0 mm 1 mps 752 mmHg 51%
    05:00 +31°C° 0 mm 2 mps 752 mmHg 49%
    06:00 +31°C° 0 mm 2 mps 752 mmHg 47%
    07:00 +34°C° 0 mm 2 mps 752 mmHg 42%
    08:00 +35°C° 0 mm 3 mps 752 mmHg 37%
    09:00 +37°C° 0 mm 3 mps 752 mmHg 33%
    10:00 +38°C° 0 mm 3 mps 751 mmHg 31%
    11:00 +39°C° 0 mm 2 mps 751 mmHg 29%
    12:00 +40°C° 0 mm 2 mps 751 mmHg 27%
    13:00 +41°C° 0 mm 2 mps 750 mmHg 26%
    14:00 +42°C° 0 mm 2 mps 750 mmHg 24%
    15:00 +42°C° 0 mm 2 mps 750 mmHg 23%
    16:00 +42°C° 0 mm 2 mps 750 mmHg 23%
    17:00 +42°C° 0 mm 2 mps 750 mmHg 24%
    18:00 +41°C° 0 mm 2 mps 750 mmHg 24%
    19:00 +39°C° 0.1 mm 3 mps 751 mmHg 28%
    20:00 +37°C° 0.1 mm 3 mps 752 mmHg 32%
    21:00 +35°C° 0.1 mm 4 mps 753 mmHg 36%
    22:00 +34°C° 0 mm 3 mps 753 mmHg 39%
    23:00 +33°C° 0 mm 3 mps 753 mmHg 42%

    22 July, Sunday

    Time Temperature Precipitation Wind Pressure Humidity
    00:00 +32°C° 0 mm 2 mps 753 mmHg 45%
    01:00 +31°C° 0 mm 2 mps 753 mmHg 46%
    02:00 +31°C° 0 mm 2 mps 753 mmHg 47%
    03:00 +30°C° 0 mm 1 mps 753 mmHg 48%
    04:00 +31°C° 0 mm 2 mps 753 mmHg 47%
    05:00 +31°C° 0 mm 2 mps 753 mmHg 46%
    06:00 +31°C° 0 mm 3 mps 753 mmHg 45%
    07:00 +34°C° 0 mm 3 mps 753 mmHg 41%
    08:00 +35°C° 0 mm 3 mps 753 mmHg 37%
    09:00 +37°C° 0 mm 3 mps 753 mmHg 32%
    10:00 +38°C° 0 mm 3 mps 753 mmHg 30%
    11:00 +39°C° 0 mm 2 mps 752 mmHg 28%
    12:00 +40°C° 0 mm 2 mps 752 mmHg 26%
    13:00 +42°C° 0 mm 3 mps 751 mmHg 25%
    14:00 +43°C° 0 mm 3 mps 751 mmHg 23%
    15:00 +44°C° 0 mm 4 mps 750 mmHg 21%
    16:00 +43°C° 0 mm 4 mps 751 mmHg 21%
    17:00 +43°C° 0 mm 5 mps 751 mmHg 22%
    18:00 +43°C° 0 mm 5 mps 751 mmHg 22%
    19:00 +41°C° 0 mm 5 mps 751 mmHg 26%
    20:00 +37°C° 0 mm 5 mps 752 mmHg 29%
    21:00 +35°C° 0 mm 5 mps 753 mmHg 33%
    22:00 +35°C° 0 mm 4 mps 753 mmHg 36%
    23:00 +34°C° 0 mm 4 mps 753 mmHg 38%

    23 July, Monday

    Time Temperature Precipitation Wind Pressure Humidity
    00:00 +33°C° 0 mm 3 mps 753 mmHg 41%
    01:00 +31°C° 0 mm 2 mps 753 mmHg 42%
    02:00 +31°C° 0 mm 2 mps 753 mmHg 44%
    03:00 +30°C° 0 mm 1 mps 753 mmHg 45%
    04:00 +31°C° 0 mm 1 mps 753 mmHg 44%
    05:00 +31°C° 0 mm 1 mps 753 mmHg 43%
    06:00 +31°C° 0 mm 2 mps 753 mmHg 42%
    07:00 +34°C° 0 mm 2 mps 753 mmHg 38%
    08:00 +35°C° 0 mm 2 mps 753 mmHg 35%
    09:00 +37°C° 0 mm 3 mps 752 mmHg 31%
    10:00 +38°C° 0 mm 2 mps 752 mmHg 29%
    11:00 +39°C° 0 mm 2 mps 751 mmHg 26%
    12:00 +40°C° 0 mm 2 mps 751 mmHg 24%
    13:00 +41°C° 0 mm 2 mps 751 mmHg 23%
    14:00 +42°C° 0 mm 2 mps 750 mmHg 22%
    15:00 +42°C° 0 mm 2 mps 750 mmHg 20%
    16:00 +43°C° 0 mm 3 mps 750 mmHg 20%
    17:00 +43°C° 0 mm 3 mps 750 mmHg 20%
    18:00 +43°C° 0 mm 3 mps 750 mmHg 21%
    19:00 +41°C° 0 mm 4 mps 751 mmHg 23%
    20:00 +38°C° 0 mm 4 mps 752 mmHg 26%
    21:00 +36°C° 0 mm 4 mps 752 mmHg 29%
    22:00 +35°C° 0 mm 4 mps 753 mmHg 31%
    23:00 +34°C° 0 mm 3 mps 753 mmHg 34%
    Show more